When you browse on this site, cookies collect data to enhance your experience and personalize the content and advertising you see.
Visit our Privacy Policy to learn more. By continuing to use the site, you agree to this use of cookies and data.
  • In Czech Republic
  • List of Countries
  • For 7 days
  • Water Temperature
  • Weather Map
  • Weather Widgets
  • user-avatar
    Login

    Hourly Weather Tirana

    Today, 19 September, Thursday

    Time Temperature Precipitation Wind Pressure Humidity
    00:00 +22°C° 0 mm 1 mps 754 mmHg 76%
    01:00 +22°C° 0 mm 1 mps 754 mmHg 75%
    02:00 +21°C° 0.1 mm 2 mps 754 mmHg 75%
    03:00 +21°C° 0.1 mm 2 mps 754 mmHg 76%
    04:00 +20°C° 0.1 mm 2 mps 754 mmHg 76%
    05:00 +21°C° 0.1 mm 2 mps 754 mmHg 71%
    06:00 +23°C° 0.1 mm 2 mps 753 mmHg 66%
    07:00 +24°C° 0.1 mm 2 mps 753 mmHg 62%
    08:00 +26°C° 0.3 mm 3 mps 754 mmHg 57%
    09:00 +27°C° 0.3 mm 3 mps 754 mmHg 53%
    10:00 +29°C° 0.3 mm 3 mps 754 mmHg 48%
    11:00 +29°C° 0.7 mm 3 mps 754 mmHg 48%
    12:00 +29°C° 0.7 mm 3 mps 753 mmHg 47%
    13:00 +29°C° 0.7 mm 3 mps 753 mmHg 47%
    14:00 +29°C° 0.5 mm 4 mps 753 mmHg 48%
    15:00 +28°C° 0.5 mm 4 mps 753 mmHg 48%
    16:00 +28°C° 0.5 mm 5 mps 753 mmHg 49%
    17:00 +26°C° 1 mm 4 mps 754 mmHg 55%
    18:00 +25°C° 1 mm 3 mps 754 mmHg 61%
    19:00 +24°C° 1 mm 2 mps 754 mmHg 67%
    20:00 +22°C° 1.4 mm 3 mps 754 mmHg 69%
    21:00 +22°C° 1.4 mm 3 mps 755 mmHg 72%
    22:00 +21°C° 1.4 mm 3 mps 755 mmHg 74%
    23:00 +21°C° 0.9 mm 4 mps 755 mmHg 76%

    Tomorrow, 20 September, Friday

    Time Temperature Precipitation Wind Pressure Humidity
    00:00 +20°C° 0.9 mm 4 mps 755 mmHg 77%
    01:00 +20°C° 0.9 mm 4 mps 755 mmHg 78%
    02:00 +20°C° 0.2 mm 4 mps 755 mmHg 78%
    03:00 +20°C° 0.2 mm 4 mps 755 mmHg 78%
    04:00 +20°C° 0.2 mm 4 mps 755 mmHg 77%
    05:00 +20°C° 0.2 mm 4 mps 755 mmHg 75%
    06:00 +20°C° 0.2 mm 4 mps 755 mmHg 72%
    07:00 +20°C° 0.2 mm 5 mps 756 mmHg 69%
    08:00 +21°C° 0 mm 5 mps 756 mmHg 62%
    09:00 +23°C° 0 mm 5 mps 756 mmHg 55%
    10:00 +25°C° 0 mm 5 mps 756 mmHg 48%
    11:00 +27°C° 0 mm 5 mps 756 mmHg 44%
    12:00 +28°C° 0 mm 5 mps 756 mmHg 41%
    13:00 +29°C° 0 mm 5 mps 755 mmHg 38%
    14:00 +28°C° 0 mm 6 mps 755 mmHg 36%
    15:00 +28°C° 0 mm 7 mps 755 mmHg 34%
    16:00 +28°C° 0 mm 8 mps 755 mmHg 32%
    17:00 +26°C° 0 mm 7 mps 756 mmHg 35%
    18:00 +23°C° 0 mm 7 mps 756 mmHg 37%
    19:00 +21°C° 0 mm 6 mps 756 mmHg 39%
    20:00 +20°C° 0 mm 6 mps 757 mmHg 40%
    21:00 +20°C° 0 mm 5 mps 757 mmHg 42%
    22:00 +19°C° 0 mm 5 mps 757 mmHg 43%
    23:00 +19°C° 0 mm 4 mps 758 mmHg 41%

    Day after tomorrow, 21 September, Saturday

    Time Temperature Precipitation Wind Pressure Humidity
    00:00 +18°C° 0 mm 4 mps 758 mmHg 39%
    01:00 +18°C° 0 mm 4 mps 758 mmHg 37%
    02:00 +17°C° 0 mm 4 mps 758 mmHg 36%
    03:00 +17°C° 0 mm 4 mps 758 mmHg 35%
    04:00 +17°C° 0 mm 4 mps 758 mmHg 34%
    05:00 +17°C° 0 mm 4 mps 758 mmHg 34%
    06:00 +18°C° 0 mm 4 mps 758 mmHg 33%
    07:00 +19°C° 0 mm 3 mps 758 mmHg 32%
    08:00 +21°C° 0 mm 3 mps 758 mmHg 29%
    09:00 +25°C° 0 mm 2 mps 759 mmHg 26%
    10:00 +27°C° 0 mm 2 mps 759 mmHg 22%
    11:00 +28°C° 0 mm 2 mps 759 mmHg 23%
    12:00 +28°C° 0 mm 3 mps 758 mmHg 23%
    13:00 +29°C° 0 mm 4 mps 758 mmHg 23%
    14:00 +28°C° 0 mm 4 mps 758 mmHg 26%
    15:00 +27°C° 0 mm 4 mps 758 mmHg 28%
    16:00 +27°C° 0 mm 4 mps 757 mmHg 30%
    17:00 +25°C° 0 mm 4 mps 758 mmHg 35%
    18:00 +22°C° 0 mm 3 mps 758 mmHg 40%
    19:00 +20°C° 0 mm 3 mps 758 mmHg 45%
    20:00 +20°C° 0 mm 3 mps 758 mmHg 46%
    21:00 +20°C° 0 mm 2 mps 758 mmHg 46%
    22:00 +19°C° 0 mm 2 mps 758 mmHg 47%
    23:00 +19°C° 0 mm 2 mps 758 mmHg 47%

    22 September, Sunday

    Time Temperature Precipitation Wind Pressure Humidity
    00:00 +20°C° 0 mm 1 mps 758 mmHg 46%
    01:00 +20°C° 0 mm 1 mps 758 mmHg 46%
    02:00 +19°C° 0 mm 1 mps 758 mmHg 47%
    03:00 +19°C° 0 mm 1 mps 757 mmHg 48%
    04:00 +19°C° 0 mm 1 mps 757 mmHg 49%
    05:00 +20°C° 0 mm 1 mps 757 mmHg 48%
    06:00 +21°C° 0 mm 1 mps 757 mmHg 47%
    07:00 +22°C° 0 mm 1 mps 757 mmHg 46%
    08:00 +24°C° 0 mm 1 mps 757 mmHg 43%
    09:00 +25°C° 0 mm 1 mps 757 mmHg 40%
    10:00 +27°C° 0 mm 1 mps 757 mmHg 37%
    11:00 +28°C° 0 mm 2 mps 757 mmHg 35%
    12:00 +29°C° 0 mm 2 mps 756 mmHg 32%
    13:00 +29°C° 0 mm 3 mps 756 mmHg 30%
    14:00 +28°C° 0 mm 2 mps 756 mmHg 35%
    15:00 +27°C° 0 mm 2 mps 755 mmHg 39%
    16:00 +26°C° 0 mm 1 mps 755 mmHg 44%
    17:00 +25°C° 0 mm 1 mps 755 mmHg 49%
    18:00 +23°C° 0 mm 1 mps 755 mmHg 53%
    19:00 +22°C° 0 mm 1 mps 756 mmHg 58%
    20:00 +22°C° 0 mm 1 mps 756 mmHg 58%
    21:00 +21°C° 0 mm 2 mps 756 mmHg 59%
    22:00 +21°C° 0 mm 2 mps 756 mmHg 59%
    23:00 +21°C° 0 mm 2 mps 756 mmHg 59%

    23 September, Monday

    Time Temperature Precipitation Wind Pressure Humidity
    00:00 +21°C° 0 mm 2 mps 756 mmHg 59%
    01:00 +21°C° 0 mm 2 mps 755 mmHg 59%
    02:00 +21°C° 0 mm 2 mps 755 mmHg 60%
    03:00 +20°C° 0 mm 2 mps 755 mmHg 60%
    04:00 +20°C° 0 mm 2 mps 754 mmHg 60%
    05:00 +21°C° 0 mm 3 mps 754 mmHg 56%
    06:00 +22°C° 0 mm 3 mps 754 mmHg 51%
    07:00 +23°C° 0 mm 4 mps 754 mmHg 47%
    08:00 +23°C° 0 mm 4 mps 754 mmHg 45%
    09:00 +25°C° 0 mm 4 mps 754 mmHg 44%
    10:00 +26°C° 0 mm 3 mps 753 mmHg 42%
    11:00 +27°C° 0.1 mm 4 mps 753 mmHg 42%
    12:00 +28°C° 0.1 mm 4 mps 753 mmHg 41%
    13:00 +29°C° 0.1 mm 5 mps 752 mmHg 41%
    14:00 +28°C° 0.4 mm 6 mps 752 mmHg 45%
    15:00 +28°C° 0.4 mm 6 mps 751 mmHg 49%
    16:00 +28°C° 0.4 mm 7 mps 751 mmHg 53%
    17:00 +27°C° 0.7 mm 6 mps 751 mmHg 60%
    18:00 +24°C° 0.7 mm 6 mps 751 mmHg 67%
    19:00 +22°C° 0.7 mm 6 mps 751 mmHg 74%
    20:00 +22°C° 0.6 mm 5 mps 751 mmHg 75%
    21:00 +22°C° 0.6 mm 4 mps 751 mmHg 76%
    22:00 +22°C° 0.6 mm 3 mps 751 mmHg 76%
    23:00 +22°C° 2 mm 3 mps 750 mmHg 78%

    24 September, Tuesday

    Time Temperature Precipitation Wind Pressure Humidity
    00:00 +22°C° 2 mm 3 mps 750 mmHg 80%
    01:00 +21°C° 2 mm 3 mps 750 mmHg 81%
    02:00 +21°C° 0.9 mm 4 mps 749 mmHg 83%
    03:00 +21°C° 0.9 mm 4 mps 749 mmHg 84%
    04:00 +21°C° 0.9 mm 5 mps 749 mmHg 85%
    05:00 +21°C° 0.1 mm 4 mps 749 mmHg 83%
    06:00 +22°C° 0.1 mm 4 mps 748 mmHg 82%
    07:00 +22°C° 0.1 mm 4 mps 748 mmHg 80%
    08:00 +23°C° 0.2 mm 4 mps 748 mmHg 72%
    09:00 +25°C° 0.2 mm 4 mps 749 mmHg 65%
    10:00 +27°C° 0.2 mm 5 mps 749 mmHg 57%
    11:00 +27°C° 0.4 mm 5 mps 748 mmHg 57%
    12:00 +27°C° 0.4 mm 6 mps 748 mmHg 57%
    13:00 +27°C° 0.4 mm 6 mps 748 mmHg 57%
    14:00 +26°C° 0.8 mm 6 mps 748 mmHg 61%
    15:00 +24°C° 0.8 mm 6 mps 748 mmHg 65%
    16:00 +23°C° 0.8 mm 7 mps 747 mmHg 69%
    17:00 +22°C° 0.9 mm 6 mps 748 mmHg 74%
    18:00 +21°C° 0.9 mm 6 mps 748 mmHg 78%
    19:00 +20°C° 0.9 mm 5 mps 749 mmHg 83%
    20:00 +20°C° 0.6 mm 5 mps 749 mmHg 84%
    21:00 +19°C° 0.6 mm 4 mps 749 mmHg 86%
    22:00 +18°C° 0.6 mm 4 mps 749 mmHg 87%
    23:00 +18°C° 0.2 mm 4 mps 749 mmHg 86%
    Show more